Weather History for Beirut, Lebanon

Change the Weather History Date:

Friday, January 18, 2013

  Actual Average Record
Temperature  
Mean Temperature 60 °F -  
Max Temperature 67 °F 61 °F 69 °F (2011)
Min Temperature 53 °F 51 °F 48 °F (2005)
Degree Days  
Heating Degree Days 5    
Growing Degree Days 10 (Base 50)    
Moisture  
Dew Point 40 °F    
Average Humidity 48    
Maximum Humidity 63    
Minimum Humidity 34    
Precipitation  
Precipitation 0.00 in 0.21 in - ()
Sea Level Pressure  
Sea Level Pressure 30.02 in    
Wind  
Wind Speed 5 mph ()    
Max Wind Speed 9 mph    
Max Gust Speed -    
Visibility 4.9 miles    
Events      
Averages and records for this station are not official NWS values.
T = Trace of Precipitation, MM = Missing Value Source: Averaged Metar Reports

Daily Weather History Graph

Daily Weather History Graph

Search for Another Location

Airport:

Trip Planner

Search our weather history database for the weather conditions in past years. The results will help you decide how hot, cold, wet, or windy it might be!

Date:

Astronomy

Jan. 18, 2013 Rise Set
Actual Time 6:42 AM EET 4:55 PM EET
Civil Twilight 6:15 AM EET 5:22 PM EET
Nautical Twilight 5:44 AM EET 5:52 PM EET
Astronomical Twilight 5:14 AM EET 6:22 PM EET
Moon 10:31 AM EET (1/18) No Moon Set
Length of Visible Light 11h 06m
Length of Day
10h 13m
Waxing Crescent, 44% of the Moon is Illuminated
Jan 18
Waxing Crescent
Jan 19
First Quarter
Jan 27
Full
Feb 3
Last Quarter
Feb 10
New

Hourly Weather History & Observations

Time (EET) Temp. Dew Point Humidity Pressure Visibility Wind Dir Wind Speed Gust Speed Precip Events Conditions
12:00 AM 55.4 °F 41.0 °F 58% 30.12 in 3.7 mi East 5.8 mph - N/A   Clear
1:00 AM 57.2 °F 42.8 °F 59% 30.09 in 5.0 mi East 5.8 mph - N/A   Clear
2:00 AM 56 °F 38 °F 40% 30.07 in 4 mi East 4.6 mph - -  
2:00 AM 55.4 °F 37.4 °F 51% 30.09 in 3.7 mi ESE 5.8 mph - N/A   Clear
3:00 AM 55.4 °F 37.4 °F 51% 30.09 in 3.7 mi East 6.9 mph - N/A   Clear
4:00 AM 55.4 °F 33.8 °F 44% 30.06 in 4.3 mi East 5.8 mph - N/A   Clear
5:00 AM 53.6 °F 32.0 °F 44% 30.06 in 5.0 mi East 6.9 mph - N/A   Partly Cloudy
6:00 AM 53.6 °F 33.8 °F 47% 30.06 in 5.0 mi East 5.8 mph - N/A   Partly Cloudy
7:00 AM 53.6 °F 33.8 °F 47% 30.06 in 5.0 mi East 5.8 mph - N/A   Clear
8:00 AM 58 °F 37 °F 34% 30.05 in 6 mi East 2.3 mph - -   Scattered Clouds
8:00 AM 55.4 °F 32.0 °F 41% 30.06 in 5.0 mi East 5.8 mph - N/A   Clear
9:00 AM 59.0 °F 37.4 °F 45% 30.06 in - East 2.3 mph - N/A   Clear
10:00 AM 64.4 °F 42.8 °F 45% 30.06 in 4.3 mi Variable 2.3 mph - N/A   Mostly Cloudy
11:00 AM 64.4 °F 44.6 °F 49% 30.04 in - NW 5.8 mph - N/A   Clear
12:00 PM 66.2 °F 42.8 °F 43% 29.98 in 4.3 mi North 5.8 mph - N/A   Mostly Cloudy
1:00 PM 64.4 °F 42.8 °F 45% 29.98 in 6.2 mi North 9.2 mph - N/A   Mostly Cloudy
2:00 PM 65 °F 48 °F 44% 29.93 in 5 mi North 4.6 mph - -   Scattered Clouds
2:00 PM 64.4 °F 44.6 °F 49% 29.95 in 6.2 mi NE 8.1 mph - N/A   Mostly Cloudy
3:00 PM 64.4 °F 41.0 °F 42% 29.98 in 5.0 mi North 6.9 mph - N/A   Mostly Cloudy
4:00 PM 64.4 °F 41.0 °F 42% 29.98 in 5.0 mi NNE 4.6 mph - N/A   Mostly Cloudy
5:00 PM 62.6 °F 35.6 °F 37% 29.98 in 5.0 mi NNE 4.6 mph - N/A   Mostly Cloudy
6:00 PM 60.8 °F 42.8 °F 52% 29.98 in 5.0 mi East 3.5 mph - N/A   Scattered Clouds
7:00 PM 59.0 °F 42.8 °F 55% 29.98 in 5.0 mi East 4.6 mph - N/A   Scattered Clouds
8:00 PM 58 °F 43 °F 47% 29.96 in 6 mi East 1.2 mph - -   Clear
8:00 PM 59.0 °F 42.8 °F 55% 29.98 in 5.0 mi ESE 5.8 mph - N/A   Scattered Clouds
9:00 PM 55.4 °F 42.8 °F 63% 30.01 in 5.0 mi Variable 1.2 mph - N/A   Partly Cloudy
10:00 PM 57.2 °F 42.8 °F 59% 30.01 in 4.3 mi East 4.6 mph - N/A   Scattered Clouds
11:00 PM 57.2 °F 42.8 °F 59% 30.01 in - East 4.6 mph - N/A   Clear